Home   Weather   Nassau   Past weeks

Flag for Bahamas Past Weather in Nassau, Bahamas — Yesterday and Last 2 Weeks

Now
84 °F

Partly sunny.


Feels Like: 84 °F
Forecast: N/A
Wind: 14 mph from East

Location: Nassau Airport

Current Time: Apr 30, 2017 at 6:49:40 pm

Latest Report: Apr 30, 2017 at 6:00 pm


Visibility: N/A

Pressure: 30.09 "Hg

Humidity: 45%

Dew Point: 61 °F

Location of NassauLocation

Past Weather in Nassau — Graph

°F

Nassau Temperature Yesterday

Maximum temperature yesterday: 86 °F (at 12:00 pm)
Minimum temperature yesterday: 77 °F (at 10:00 pm)
Average temperature yesterday: 82 °F

High & Low Weather Summary for the Past Weeks

 TemperatureHumidityPressure
High90 °F (Apr 24, 12:00 pm)100% (Apr 23, 8:00 am)30.20 "Hg (Apr 23, 8:00 am)
Low70 °F (Apr 21, 5:00 am)23% (Apr 18, 3:00 am)29.74 "Hg (Apr 24, 5:00 am)
Average80 °F63%30.02 "Hg
* Reported Apr 15 5:00 pm — Apr 30 5:00 pm, Nassau, Weather by CustomWeather, © 2017

Note: Actual official high and low records may vary slightly from our data, if they occured in-between our weather recording intervals... More about our weather records

Advertising

Nassau Weather History for the Previous 24 Hours

Scroll right to see more
 ConditionsComfort  
Time TempWeatherWind HumidityBarometerVisibility
5:00 pm
Sun, Apr 30
88 °FPartly sunny.16 mph40%30.09 "HgN/A
4:00 pm88 °FPartly sunny.18 mph40%30.10 "HgN/A
3:00 pm88 °FPartly sunny.16 mph40%30.11 "HgN/A
2:00 pm88 °FPartly sunny.20 mph38%30.12 "HgN/A
1:00 pm88 °FScattered clouds.17 mph40%30.13 "HgN/A
12:00 pm88 °FScattered clouds.16 mph40%30.15 "HgN/A
11:00 am88 °FScattered clouds.18 mph40%30.17 "HgN/A
10:00 am84 °FScattered clouds.16 mph48%30.15 "HgN/A
9:00 am82 °FScattered clouds.16 mph55%30.14 "HgN/A
8:00 am82 °FScattered clouds.13 mph55%30.13 "HgN/A
7:00 am77 °FScattered clouds.14 mph89%30.12 "HgN/A
6:00 am77 °FPassing clouds.12 mph89%30.11 "HgN/A
5:00 am77 °FPassing clouds.12 mph83%30.11 "HgN/A
4:00 am79 °FSprinkles. Passing clouds.7 mph79%30.11 "HgN/A
3:00 am79 °FPassing clouds.9 mph79%30.11 "HgN/A
2:00 am79 °FPassing clouds.14 mph79%30.12 "HgN/A
1:00 am79 °FPassing clouds.12 mph79%30.13 "HgN/A
12:00 am79 °FPassing clouds.12 mph79%30.15 "HgN/A
11:00 pm
Sat, Apr 29
79 °FPassing clouds.12 mph79%30.15 "HgN/A
10:00 pm77 °FPassing clouds.14 mph83%30.14 "HgN/A
9:00 pm79 °FPassing clouds.14 mph79%30.12 "HgN/A
8:00 pm81 °FPassing clouds.17 mph79%30.11 "HgN/A
7:00 pm81 °FScattered clouds.15 mph79%30.11 "HgN/A
6:00 pm82 °FScattered clouds.13 mph74%30.11 "HgN/A
Weather by CustomWeather, © 2017

See weather overviewHow to use our weather pages